GALAXY 19 (G-19)

Last updated on Tue Jul 01 2025 00:02:44 GMT+0000 (Coordinated Universal Time)

1 33376U 08045A 25181.40584264 -.00000142 00000+0 00000+0 0 9995 2 33376 0.0378 266.0893 0003384 203.9422 217.7735 1.00286576 61370
UTC large
Height (km)
Speed (km/s)
/
Latitude / Longitude
Inclination (degrees)
Orbital Period (minutes)
Azimuth
Elevation
Range (km)
Doppler Factor

Next 0 passes for location: London (51.5072 / 0.1276)

Sorry there are no passes over London.